Location: Hodgeman County Ambulance
(38.0844°N, 99.8949°W)
Time: 00:03:16
(UTC+00:00)

Cosmos 1833 Rocket - Pass Details

Date: 27 October 2020
Orbit: 832 x 840 km, 71.0° (Epoch: 04 December)

Event Time Altitude Azimuth Distance (km) Brightness Sun altitude
Exits shadow 12:17:57 11° 269° (W) 2,415 4.4 -9.1°
Maximum altitude 12:21:23 17° 307° (NW) 1,998 4.1 -8.4°
Drops below altitude 10° 12:25:01 10° 348° (NNW) 2,462 4.9 -7.7°
Sets 12:28:23 0° 8° (N) 3,401 5.8 -7.0°
